Location: Alphen
(52.1351°N, 4.6549°E)
Time: 02:13:19
(UTC+00:00)

PSLV R/B - Pass Details

Date: 27 January 2021
Orbit: 504 x 577 km, 97.8° (Epoch: 26 February)

Event Time Altitude Azimuth Distance (km) Brightness Sun altitude
Rises 06:21:45 0° 9° (N) 2,737 7.3 -10.3°
Reaches altitude 10° 06:23:56 10° 3° (N) 1,850 6.4 -10.0°
Maximum altitude 06:27:45 44° 291° (WNW) 784 4.2 -9.4°
Drops below altitude 10° 06:31:37 10° 219° (SW) 1,870 6.3 -8.9°
Sets 06:33:50 0° 213° (SSW) 2,770 7.3 -8.5°
